User: anonymous   Login
Location: Unspecified
(0.0000°N, 0.0000°E)
Time: 06:22:07
(UTC+00:00)
Language:

PAYLOAD H - Orbit

View from above orbital plane
View from above orbital plane
View from above satellite
View from above satellite

Ground track
Ground track

The orbit data is extracted from the following two-line orbital elements,

1 27847U 03031H   18175.52482194  .00000034  00000-0  35197-4 0  9998
2 27847  98.6823 182.6195 0008615 331.8818  28.1894 14.22114458777331
Epoch (UTC): 24 June 2018 12:35:44
Eccentricity: 0.0008615
inclination: 98.6823°
perigee height: 812 km
apogee height: 824 km
right ascension of ascending node: 182.6195°
argument of perigee: 331.8818°
revolutions per day: 14.22114458
mean anomaly at epoch: 28.1894°
orbit number at epoch: 77733

The dashed part of the orbit path shows where the satellite is in the earth's shadow,  

DLR